Flag for U.S.A. Weather past 2 weeks in Cambridge, Massachusetts, U.S.A.

Now
51 °F

Clear.


Feels Like: 47 °F
Forecast: 44 / 72 °F
Wind: 10 mph from Southeast

Location: Logan International Airport

Current Time: Sep 19, 2014 at 11:57:05 PM

Latest Report: Sep 19, 2014 at 10:54 PM


Visibility: 10 mi

Pressure: 30.42 "Hg

Humidity: 56%

Dew point: 36 °F

Location of CambridgeLocation

Historic Weather in Cambridge — Graph

°F

Cambridge temperature yesterday

Maximum temperature yesterday: 73 °F (at 12:54 PM)
Minimum temperature yesterday: 56 °F (at 3:54 AM)
Average temperature yesterday: 64 °F

Past Weeks' High & Low Weather Summary

 TemperatureHumidityPressure
High91 °F (Sep 6, 12:54 PM)97% (Sep 11, 1:54 AM)30.43 "Hg (Sep 11, 1:54 AM)
Low47 °F (Sep 19, 6:54 AM)36% (Sep 7, 12:54 PM)29.74 "Hg (Sep 6, 5:54 PM)
Average64 °F69%30.10 "Hg
* Reported Sep 4 10:54 PM — Sep 19 10:54 PM, Cambridge, Weather by CustomWeather, © 2014

Note: Actual official high and low records may vary slightly from our data, if they occured in-between our weather recording intervals... More about our weather records

Advertising

Cambridge weather history for previous 24 hours

 ConditionsComfort  
Time TempWeatherWind HumidityBarometerVisibility
10:54 PM
Sep 19
51 °FClear.10 mph56%30.42 "Hg10 mi
9:54 PM51 °FClear.9 mph54%30.42 "Hg10 mi
8:54 PM51 °FClear.9 mph52%30.43 "Hg10 mi
7:54 PM51 °FClear.8 mph50%30.43 "Hg10 mi
6:54 PM51 °FPassing clouds.7 mph48%30.41 "Hg10 mi
5:54 PM53 °FPassing clouds.8 mph41%30.41 "Hg10 mi
4:54 PM54 °FPassing clouds.8 mph43%30.41 "Hg10 mi
3:54 PM54 °FPassing clouds.10 mph47%30.41 "Hg10 mi
2:54 PM55 °FPassing clouds.9 mph47%30.41 "Hg10 mi
1:54 PM56 °FPassing clouds.13 mph46%30.41 "Hg10 mi
12:54 PM55 °FPassing clouds.12 mph47%30.40 "Hg10 mi
11:54 AM56 °FScattered clouds.10 mph46%30.39 "Hg10 mi
10:54 AM54 °FPassing clouds.12 mph47%30.39 "Hg10 mi
9:54 AM53 °FSunny.10 mph51%30.38 "Hg10 mi
8:54 AM51 °FPassing clouds.12 mph52%30.37 "Hg10 mi
7:54 AM48 °FPassing clouds.13 mph61%30.34 "Hg10 mi
6:54 AM47 °FPassing clouds.13 mph64%30.31 "Hg10 mi
5:54 AM48 °FPassing clouds.12 mph63%30.28 "Hg10 mi
4:54 AM49 °FPassing clouds.12 mph61%30.25 "Hg10 mi
3:54 AM50 °FPassing clouds.14 mph63%30.22 "Hg10 mi
2:54 AM51 °FPartly cloudy.13 mph63%30.21 "Hg10 mi
1:54 AM53 °FPassing clouds.9 mph61%30.19 "Hg10 mi
12:54 AM55 °FPassing clouds.10 mph57%30.17 "Hg10 mi
11:54 PM
Sep 18
57 °FPassing clouds.9 mph55%30.15 "Hg10 mi
Weather by CustomWeather, © 2014

See weather overviewHow to use our weather pages